Time,TemperatureF,DewpointF,PressureIn,WindDirection,WindDirectionDegrees,WindSpeedMPH,WindSpeedGustMPH,Humidity,HourlyPrecipIn,Conditions,Clouds,dailyrainin,SoftwareType,DateUTC
2013-04-24 00:01:00,67.1,51.8,31.01,South,187,4.9,8.3,55,0.00,,,0.00,WUHU216WMR968SP,2013-04-24 05:01:00,
2013-04-24 00:06:00,67.3,51.8,31.01,South,185,4.9,6.3,55,0.00,,,0.00,WUHU216WMR968SP,2013-04-24 05:06:00,
2013-04-24 00:11:00,67.6,50.0,31.01,South,170,5.4,8.1,54,0.00,,,0.00,WUHU216WMR968SP,2013-04-24 05:11:00,
2013-04-24 00:16:00,67.8,50.0,31.01,South,176,4.6,8.7,52,0.00,,,0.00,WUHU216WMR968SP,2013-04-24 05:16:00,
2013-04-24 00:21:00,67.8,50.0,31.01,South,175,4.4,8.7,52,0.00,,,0.00,WUHU216WMR968SP,2013-04-24 05:21:00,
2013-04-24 00:26:00,67.6,50.0,31.01,SSE,168,4.2,8.3,52,0.00,,,0.00,WUHU216WMR968SP,2013-04-24 05:26:00,
2013-04-24 00:31:00,67.5,50.0,31.01,South,175,3.9,7.6,52,0.00,,,0.00,WUHU216WMR968SP,2013-04-24 05:31:00,
2013-04-24 00:36:00,67.5,50.0,31.01,South,171,3.4,6.3,53,0.00,,,0.00,WUHU216WMR968SP,2013-04-24 05:36:00,
2013-04-24 00:41:00,67.5,50.0,31.01,SSE,159,3.1,6.3,53,0.00,,,0.00,WUHU216WMR968SP,2013-04-24 05:41:00,
2013-04-24 00:46:00,67.5,50.0,31.01,South,171,3.9,6.3,53,0.00,,,0.00,WUHU216WMR968SP,2013-04-24 05:46:00,
2013-04-24 00:51:00,67.5,50.0,31.01,SSW,192,4.9,6.3,53,0.00,,,0.00,WUHU216WMR968SP,2013-04-24 05:51:00,
2013-04-24 00:56:00,67.6,50.0,31.01,South,183,6.7,9.6,53,0.00,,,0.00,WUHU216WMR968SP,2013-04-24 05:56:00,
2013-04-24 01:01:00,68.0,50.0,31.01,South,176,6.7,10.5,52,0.00,,,0.00,WUHU216WMR968SP,2013-04-24 06:01:00,
2013-04-24 01:06:00,68.0,50.0,31.01,SSW,200,6.1,10.5,51,0.00,,,0.00,WUHU216WMR968SP,2013-04-24 06:06:00,
2013-04-24 01:11:00,67.8,50.0,31.01,SW,225,3.6,8.3,53,0.00,,,0.00,WUHU216WMR968SP,2013-04-24 06:11:00,
2013-04-24 01:16:00,67.6,50.0,31.01,SW,217,0.0,4.9,53,0.00,,,0.00,WUHU216WMR968SP,2013-04-24 06:16:00,
2013-04-24 01:21:00,67.5,50.0,31.01,SSW,197,0.0,3.6,54,0.00,,,0.00,WUHU216WMR968SP,2013-04-24 06:21:00,
2013-04-24 01:26:00,67.1,50.0,31.01,SSW,196,3.1,4.9,54,0.00,,,0.00,WUHU216WMR968SP,2013-04-24 06:26:00,
2013-04-24 01:31:00,66.2,50.0,31.01,South,176,4.5,7.2,54,0.00,,,0.00,WUHU216WMR968SP,2013-04-24 06:31:00,
2013-04-24 01:36:00,64.9,50.0,31.01,South,172,5.8,7.2,60,0.00,,,0.00,WUHU216WMR968SP,2013-04-24 06:36:00,
2013-04-24 01:41:00,64.2,51.8,31.01,SSE,162,3.5,6.7,64,0.00,,,0.00,WUHU216WMR968SP,2013-04-24 06:41:00,
2013-04-24 01:46:00,63.7,53.6,31.01,South,175,2.6,6.3,67,0.00,,,0.00,WUHU216WMR968SP,2013-04-24 06:46:00,
2013-04-24 01:51:00,63.7,55.4,31.01,SSW,197,2.7,5.4,71,0.00,,,0.00,WUHU216WMR968SP,2013-04-24 06:51:00,
2013-04-24 01:56:00,63.9,57.2,31.01,SSW,211,2.7,5.8,76,0.00,,,0.00,WUHU216WMR968SP,2013-04-24 06:56:00,
2013-04-24 02:01:00,63.5,57.2,31.01,South,189,3.1,5.8,79,0.00,,,0.00,WUHU216WMR968SP,2013-04-24 07:01:00,
2013-04-24 02:06:00,63.5,57.2,31.01,SSW,193,2.6,5.8,80,0.00,,,0.00,WUHU216WMR968SP,2013-04-24 07:06:00,
2013-04-24 02:11:00,63.5,57.2,31.01,SSW,207,2.7,4.0,80,0.00,,,0.00,WUHU216WMR968SP,2013-04-24 07:11:00,
2013-04-24 02:16:00,63.7,59.0,31.01,South,185,2.2,4.9,81,0.00,,,0.00,WUHU216WMR968SP,2013-04-24 07:16:00,
2013-04-24 02:21:00,63.7,59.0,31.01,SSW,193,0.0,4.9,82,0.00,,,0.00,WUHU216WMR968SP,2013-04-24 07:21:00,
2013-04-24 02:26:00,63.7,59.0,31.01,South,185,2.2,3.6,82,0.00,,,0.00,WUHU216WMR968SP,2013-04-24 07:26:00,
2013-04-24 02:31:00,63.5,59.0,31.01,South,182,0.0,3.6,82,0.00,,,0.00,WUHU216WMR968SP,2013-04-24 07:31:00,
2013-04-24 02:36:00,63.5,59.0,31.01,South,182,0.0,2.7,82,0.00,,,0.00,WUHU216WMR968SP,2013-04-24 07:36:00,
2013-04-24 02:41:00,63.3,57.2,31.01,South,180,2.2,3.6,82,0.00,,,0.00,WUHU216WMR968SP,2013-04-24 07:41:00,
2013-04-24 02:46:00,63.5,59.0,31.01,South,187,2.7,4.0,83,0.00,,,0.00,WUHU216WMR968SP,2013-04-24 07:46:00,
2013-04-24 02:51:00,63.7,59.0,31.01,SE,144,4.5,7.6,83,0.00,,,0.00,WUHU216WMR968SP,2013-04-24 07:51:00,
2013-04-24 02:56:00,64.0,59.0,31.01,South,190,5.1,7.6,84,0.00,,,0.00,WUHU216WMR968SP,2013-04-24 07:56:00,
2013-04-24 03:01:00,64.6,59.0,31.01,SSW,204,4.7,8.1,85,0.00,,,0.00,WUHU216WMR968SP,2013-04-24 08:01:00,
2013-04-24 03:06:00,64.8,60.8,31.01,WSW,237,0.0,8.1,87,0.00,,,0.00,WUHU216WMR968SP,2013-04-24 08:06:00,
2013-04-24 03:11:00,64.4,60.8,31.01,SW,223,2.2,4.5,88,0.00,,,0.00,WUHU216WMR968SP,2013-04-24 08:11:00,
2013-04-24 03:16:00,64.2,60.8,31.01,WSW,238,3.4,5.8,89,0.00,,,0.00,WUHU216WMR968SP,2013-04-24 08:16:00,
2013-04-24 03:21:00,64.4,60.8,31.01,SSW,207,4.9,6.3,89,0.00,,,0.00,WUHU216WMR968SP,2013-04-24 08:21:00,
2013-04-24 03:26:00,64.8,60.8,31.01,SW,231,2.7,6.3,90,0.00,,,0.00,WUHU216WMR968SP,2013-04-24 08:26:00,
2013-04-24 03:31:00,64.8,60.8,31.01,SSW,202,0.0,5.4,90,0.00,,,0.00,WUHU216WMR968SP,2013-04-24 08:31:00,
2013-04-24 03:35:00,59.9,57.2,31.01,West,266,8.1,10.5,86,0.00,,,0.00,WUHU216WMR968SP,2013-04-24 08:35:00,
2013-04-24 03:41:00,57.6,51.8,31.01,NW,322,6.7,10.5,82,0.00,,,0.00,WUHU216WMR968SP,2013-04-24 08:41:00,
2013-04-24 03:45:00,55.9,50.0,31.01,WNW,302,6.7,11.0,84,0.00,,,0.00,WUHU216WMR968SP,2013-04-24 08:45:00,
2013-04-24 03:50:00,55.2,51.8,31.01,WNW,285,4.5,11.0,85,0.00,,,0.00,WUHU216WMR968SP,2013-04-24 08:50:00,
2013-04-24 03:56:00,54.7,51.8,31.01,WNW,282,3.1,8.3,87,0.00,,,0.00,WUHU216WMR968SP,2013-04-24 08:56:00,
2013-04-24 04:00:00,54.3,50.0,31.01,NW,312,4.6,8.3,87,0.00,,,0.00,WUHU216WMR968SP,2013-04-24 09:00:00,
2013-04-24 04:06:00,54.1,50.0,31.01,NW,304,4.8,8.1,88,0.00,,,0.00,WUHU216WMR968SP,2013-04-24 09:06:00,
2013-04-24 04:10:00,53.4,50.0,31.01,NW,321,5.4,8.7,89,0.00,,,0.00,WUHU216WMR968SP,2013-04-24 09:10:00,
2013-04-24 04:15:00,52.9,50.0,31.01,WNW,290,3.7,8.7,89,0.00,,,0.00,WUHU216WMR968SP,2013-04-24 09:15:00,
2013-04-24 04:20:00,52.5,48.2,31.01,NNW,333,5.1,8.3,89,0.00,,,0.00,WUHU216WMR968SP,2013-04-24 09:20:00,
2013-04-24 04:25:00,52.0,48.2,31.01,WSW,237,4.0,8.1,88,0.00,,,0.00,WUHU216WMR968SP,2013-04-24 09:25:00,
2013-04-24 04:30:00,51.1,48.2,31.01,West,275,4.4,7.2,88,0.00,,,0.00,WUHU216WMR968SP,2013-04-24 09:30:00,
2013-04-24 04:35:00,50.5,46.4,31.01,NW,308,4.9,7.6,87,0.00,,,0.00,WUHU216WMR968SP,2013-04-24 09:35:00,
2013-04-24 04:40:00,50.4,46.4,31.01,NNW,335,4.5,7.6,88,0.00,,,0.00,WUHU216WMR968SP,2013-04-24 09:40:00,
2013-04-24 04:45:00,50.2,46.4,31.01,WNW,302,3.6,6.3,88,0.00,,,0.00,WUHU216WMR968SP,2013-04-24 09:45:00,
2013-04-24 04:50:00,50.2,46.4,31.01,WNW,296,3.8,6.3,89,0.00,,,0.00,WUHU216WMR968SP,2013-04-24 09:50:00,
2013-04-24 04:55:00,50.0,46.4,31.01,NW,312,2.7,5.8,89,0.00,,,0.00,WUHU216WMR968SP,2013-04-24 09:55:00,
2013-04-24 05:00:00,49.8,46.4,31.01,NNW,327,2.2,5.8,90,0.00,,,0.00,WUHU216WMR968SP,2013-04-24 10:00:00,
2013-04-24 05:05:00,49.6,46.4,31.01,NW,325,3.6,5.8,90,0.00,,,0.00,WUHU216WMR968SP,2013-04-24 10:05:00,
2013-04-24 05:10:00,49.6,46.4,31.01,NW,308,4.5,5.8,90,0.00,,,0.00,WUHU216WMR968SP,2013-04-24 10:10:00,
2013-04-24 05:15:00,49.6,46.4,31.01,NW,318,2.2,5.8,90,0.00,,,0.00,WUHU216WMR968SP,2013-04-24 10:15:00,
2013-04-24 05:20:00,49.5,48.2,31.01,NW,313,3.5,5.8,91,0.00,,,0.00,WUHU216WMR968SP,2013-04-24 10:20:00,
2013-04-24 05:25:00,49.3,48.2,31.01,NW,304,3.6,7.6,91,0.00,,,0.00,WUHU216WMR968SP,2013-04-24 10:25:00,
2013-04-24 05:30:00,49.1,48.2,31.01,NW,321,3.6,7.6,91,0.00,,,0.00,WUHU216WMR968SP,2013-04-24 10:30:00,
2013-04-24 05:35:00,48.9,46.4,31.01,WNW,287,3.5,5.8,91,0.00,,,0.00,WUHU216WMR968SP,2013-04-24 10:35:00,
2013-04-24 05:40:00,48.7,46.4,31.01,NNW,327,3.6,5.8,91,0.00,,,0.00,WUHU216WMR968SP,2013-04-24 10:40:00,
2013-04-24 05:45:00,48.4,46.4,31.01,NNW,341,5.4,8.7,91,0.00,,,0.00,WUHU216WMR968SP,2013-04-24 10:45:00,
2013-04-24 05:50:00,48.2,46.4,31.01,NW,308,4.9,8.7,91,0.00,,,0.00,WUHU216WMR968SP,2013-04-24 10:50:00,
2013-04-24 05:55:00,47.5,46.4,31.01,NNW,329,6.8,8.7,91,0.00,,,0.00,WUHU216WMR968SP,2013-04-24 10:55:00,
2013-04-24 06:00:00,46.9,42.8,31.01,NNW,328,7.6,11.0,90,0.00,,,0.00,WUHU216WMR968SP,2013-04-24 11:00:00,
2013-04-24 06:05:00,46.8,42.8,31.01,WNW,294,5.0,11.0,89,0.00,,,0.00,WUHU216WMR968SP,2013-04-24 11:05:00,
2013-04-24 06:10:00,46.6,42.8,31.01,NW,313,4.9,8.7,90,0.00,,,0.00,WUHU216WMR968SP,2013-04-24 11:10:00,
2013-04-24 06:15:00,46.6,42.8,31.01,NNW,334,3.1,8.7,90,0.00,,,0.00,WUHU216WMR968SP,2013-04-24 11:15:00,
2013-04-24 06:20:00,46.6,44.6,31.01,NNW,345,5.8,8.3,91,0.00,,,0.00,WUHU216WMR968SP,2013-04-24 11:20:00,
2013-04-24 06:25:00,46.4,44.6,31.01,WNW,299,5.8,9.6,91,0.00,,,0.00,WUHU216WMR968SP,2013-04-24 11:25:00,
2013-04-24 06:30:00,45.9,44.6,31.01,NW,319,6.3,9.6,91,0.00,,,0.00,WUHU216WMR968SP,2013-04-24 11:30:00,
2013-04-24 06:35:00,46.0,44.6,31.01,NNW,339,3.1,8.7,91,0.00,,,0.00,WUHU216WMR968SP,2013-04-24 11:35:00,
2013-04-24 06:40:00,45.7,44.6,31.01,NNW,347,2.8,7.6,91,0.00,,,0.00,WUHU216WMR968SP,2013-04-24 11:40:00,
2013-04-24 06:45:00,45.5,44.6,31.01,NNW,345,3.6,7.6,91,0.00,,,0.00,WUHU216WMR968SP,2013-04-24 11:45:00,
2013-04-24 06:50:00,45.5,44.6,31.01,NNW,328,4.9,7.6,91,0.00,,,0.00,WUHU216WMR968SP,2013-04-24 11:50:00,
2013-04-24 06:55:00,45.5,44.6,31.01,North,350,3.1,7.6,91,0.00,,,0.00,WUHU216WMR968SP,2013-04-24 11:55:00,
2013-04-24 07:00:00,45.5,44.6,31.01,NW,318,3.1,5.8,91,0.00,,,0.00,WUHU216WMR968SP,2013-04-24 12:00:00,
2013-04-24 07:05:00,45.3,42.8,31.01,WNW,296,2.2,5.8,92,0.00,,,0.00,WUHU216WMR968SP,2013-04-24 12:05:00,
2013-04-24 07:10:00,45.0,42.8,31.01,NNW,341,4.0,6.3,92,0.00,,,0.00,WUHU216WMR968SP,2013-04-24 12:10:00,
2013-04-24 07:15:00,44.8,42.8,31.01,North,6,4.0,6.3,91,0.00,,,0.00,WUHU216WMR968SP,2013-04-24 12:15:00,
2013-04-24 07:20:00,44.8,42.8,31.01,NNW,327,3.0,6.3,91,0.00,,,0.00,WUHU216WMR968SP,2013-04-24 12:20:00,
2013-04-24 07:25:00,45.0,42.8,31.01,NNW,331,2.2,5.8,91,0.00,,,0.00,WUHU216WMR968SP,2013-04-24 12:25:00,
2013-04-24 07:30:00,45.0,42.8,31.01,NW,315,2.5,5.8,92,0.00,,,0.00,WUHU216WMR968SP,2013-04-24 12:30:00,
2013-04-24 07:35:00,44.8,42.8,31.01,WNW,294,4.2,6.3,92,0.00,,,0.00,WUHU216WMR968SP,2013-04-24 12:35:00,
2013-04-24 07:40:00,44.6,42.8,31.01,NNW,331,4.5,6.3,92,0.00,,,0.00,WUHU216WMR968SP,2013-04-24 12:40:00,
2013-04-24 07:45:00,44.6,42.8,31.01,NW,310,2.7,6.3,92,0.00,,,0.00,WUHU216WMR968SP,2013-04-24 12:45:00,
2013-04-24 07:50:00,44.8,42.8,31.01,WNW,290,0.0,6.3,92,0.00,,,0.00,WUHU216WMR968SP,2013-04-24 12:50:00,
2013-04-24 07:55:00,44.8,42.8,31.01,NNW,327,0.0,3.6,92,0.00,,,0.00,WUHU216WMR968SP,2013-04-24 12:55:00,
2013-04-24 08:00:00,44.8,42.8,31.01,North,352,2.7,2.7,92,0.00,,,0.00,WUHU216WMR968SP,2013-04-24 13:00:00,
2013-04-24 08:05:00,44.8,42.8,31.01,NW,310,0.0,2.7,92,0.00,,,0.00,WUHU216WMR968SP,2013-04-24 13:05:00,
2013-04-24 08:10:00,45.0,42.8,31.01,NNW,328,0.0,6.3,92,0.00,,,0.00,WUHU216WMR968SP,2013-04-24 13:10:00,
2013-04-24 08:15:00,44.8,42.8,31.01,NNW,337,0.0,6.3,92,0.00,,,0.00,WUHU216WMR968SP,2013-04-24 13:15:00,
2013-04-24 08:20:00,44.8,42.8,31.01,WNW,294,0.0,6.3,91,0.00,,,0.00,WUHU216WMR968SP,2013-04-24 13:20:00,
2013-04-24 08:25:00,44.8,42.8,31.01,NW,318,0.0,4.9,92,0.00,,,0.00,WUHU216WMR968SP,2013-04-24 13:25:00,
2013-04-24 08:30:00,44.2,42.8,31.01,WNW,296,3.3,8.7,92,0.00,,,0.00,WUHU216WMR968SP,2013-04-24 13:30:00,
2013-04-24 08:35:00,44.4,42.8,31.01,NNW,338,2.7,8.7,91,0.00,,,0.00,WUHU216WMR968SP,2013-04-24 13:35:00,
2013-04-24 08:40:00,44.1,41.0,31.01,NNW,335,4.0,8.1,89,0.00,,,0.00,WUHU216WMR968SP,2013-04-24 13:40:00,
2013-04-24 08:45:00,43.9,41.0,31.01,NNW,341,4.5,8.1,88,0.00,,,0.00,WUHU216WMR968SP,2013-04-24 13:45:00,
2013-04-24 08:50:00,43.7,41.0,31.01,NNW,345,5.4,7.6,87,0.00,,,0.00,WUHU216WMR968SP,2013-04-24 13:50:00,
2013-04-24 08:55:00,44.1,41.0,31.01,NW,309,3.1,6.3,87,0.00,,,0.00,WUHU216WMR968SP,2013-04-24 13:55:00,
2013-04-24 09:00:00,44.1,41.0,31.01,NW,313,3.1,6.3,87,0.00,,,0.00,WUHU216WMR968SP,2013-04-24 14:00:00,
2013-04-24 09:05:00,44.1,41.0,31.01,NNW,332,4.9,8.7,87,0.00,,,0.00,WUHU216WMR968SP,2013-04-24 14:05:00,
2013-04-24 09:10:00,43.7,41.0,31.01,WNW,297,3.6,8.7,87,0.00,,,0.00,WUHU216WMR968SP,2013-04-24 14:10:00,
2013-04-24 09:15:00,43.5,39.2,31.01,NNW,341,4.9,9.6,87,0.00,,,0.00,WUHU216WMR968SP,2013-04-24 14:15:00,
2013-04-24 09:20:00,43.5,39.2,31.01,NNW,332,4.1,9.6,87,0.00,,,0.00,WUHU216WMR968SP,2013-04-24 14:20:00,
2013-04-24 09:25:00,43.7,41.0,31.01,NW,310,2.2,6.3,87,0.00,,,0.00,WUHU216WMR968SP,2013-04-24 14:25:00,
2013-04-24 09:30:00,43.7,41.0,31.01,North,3,4.9,6.3,87,0.00,,,0.00,WUHU216WMR968SP,2013-04-24 14:30:00,
2013-04-24 09:35:00,43.5,39.2,31.01,NW,314,4.4,8.1,87,0.00,,,0.00,WUHU216WMR968SP,2013-04-24 14:35:00,
2013-04-24 09:40:00,43.3,37.4,31.01,NW,317,5.7,8.1,83,0.00,,,0.00,WUHU216WMR968SP,2013-04-24 14:40:00,
2013-04-24 09:45:00,44.8,39.2,31.01,NNW,341,4.5,10.1,80,0.00,,,0.00,WUHU216WMR968SP,2013-04-24 14:45:00,
2013-04-24 09:50:00,46.4,39.2,31.01,North,355,5.5,10.1,75,0.00,,,0.00,WUHU216WMR968SP,2013-04-24 14:50:00,
2013-04-24 09:55:00,46.2,37.4,31.01,NNW,334,6.6,10.5,69,0.00,,,0.00,WUHU216WMR968SP,2013-04-24 14:55:00,
2013-04-24 10:00:00,46.0,35.6,31.01,NW,304,4.9,10.5,68,0.00,,,0.00,WUHU216WMR968SP,2013-04-24 15:00:00,
2013-04-24 10:05:00,45.5,35.6,31.01,NNE,20,6.7,8.7,67,0.00,,,0.00,WUHU216WMR968SP,2013-04-24 15:05:00,
2013-04-24 10:10:00,45.3,33.8,31.01,North,2,6.5,8.7,67,0.00,,,0.00,WUHU216WMR968SP,2013-04-24 15:10:00,
2013-04-24 10:15:00,45.1,35.6,31.01,NNW,339,4.5,8.7,69,0.00,,,0.00,WUHU216WMR968SP,2013-04-24 15:15:00,
2013-04-24 10:20:00,45.3,35.6,31.01,NNW,334,4.1,7.6,70,0.00,,,0.00,WUHU216WMR968SP,2013-04-24 15:20:00,
2013-04-24 10:25:00,45.5,35.6,31.01,NW,315,4.0,8.1,67,0.00,,,0.00,WUHU216WMR968SP,2013-04-24 15:25:00,
2013-04-24 10:30:00,45.7,35.6,31.01,NW,315,2.9,8.1,66,0.00,,,0.00,WUHU216WMR968SP,2013-04-24 15:30:00,
2013-04-24 10:35:00,45.3,33.8,31.01,NW,318,0.0,5.8,67,0.00,,,0.00,WUHU216WMR968SP,2013-04-24 15:35:00,
2013-04-24 10:40:00,45.3,33.8,31.01,NW,309,0.0,5.8,66,0.00,,,0.00,WUHU216WMR968SP,2013-04-24 15:40:00,
2013-04-24 10:45:00,46.2,35.6,31.01,North,349,2.4,6.3,67,0.00,,,0.00,WUHU216WMR968SP,2013-04-24 15:45:00,
2013-04-24 10:50:00,46.4,33.8,31.01,NNW,339,2.2,6.3,62,0.00,,,0.00,WUHU216WMR968SP,2013-04-24 15:50:00,
2013-04-24 10:55:00,46.8,33.8,31.01,NW,312,0.0,3.6,62,0.00,,,0.00,WUHU216WMR968SP,2013-04-24 15:55:00,
2013-04-24 11:00:00,47.7,35.6,31.01,NNW,339,2.2,4.0,62,0.00,,,0.00,WUHU216WMR968SP,2013-04-24 16:00:00,
2013-04-24 11:05:00,48.9,33.8,31.01,WNW,286,2.7,8.7,57,0.00,,,0.00,WUHU216WMR968SP,2013-04-24 16:05:00,
2013-04-24 11:10:00,49.3,33.8,31.01,NNE,15,4.9,8.7,53,0.00,,,0.00,WUHU216WMR968SP,2013-04-24 16:10:00,
2013-04-24 11:15:00,48.2,32.0,31.01,NW,325,3.1,8.1,53,0.00,,,0.00,WUHU216WMR968SP,2013-04-24 16:15:00,
2013-04-24 11:20:00,48.0,32.0,31.01,NW,316,3.1,6.3,55,0.00,,,0.00,WUHU216WMR968SP,2013-04-24 16:20:00,
2013-04-24 11:25:00,49.5,33.8,31.01,North,357,4.5,8.3,53,0.00,,,0.00,WUHU216WMR968SP,2013-04-24 16:25:00,
2013-04-24 11:30:00,48.9,31.5,31.01,NNW,331,3.1,8.3,51,0.00,,,0.00,WUHU216WMR968SP,2013-04-24 16:30:00,
2013-04-24 11:35:00,47.5,30.2,31.01,NW,317,3.1,8.3,51,0.00,,,0.00,WUHU216WMR968SP,2013-04-24 16:35:00,
2013-04-24 11:40:00,47.7,32.0,31.01,NNW,345,5.4,8.3,55,0.00,,,0.00,WUHU216WMR968SP,2013-04-24 16:40:00,
2013-04-24 11:45:00,47.1,32.0,31.01,WNW,301,3.5,8.1,55,0.00,,,0.00,WUHU216WMR968SP,2013-04-24 16:45:00,
2013-04-24 11:50:00,47.1,32.0,31.01,WNW,297,2.7,6.3,56,0.00,,,0.00,WUHU216WMR968SP,2013-04-24 16:50:00,
2013-04-24 11:55:00,47.7,33.8,31.01,NNE,14,4.0,8.1,57,0.00,,,0.00,WUHU216WMR968SP,2013-04-24 16:55:00,
2013-04-24 12:00:00,48.0,32.0,31.01,NNE,19,2.7,8.1,54,0.00,,,0.00,WUHU216WMR968SP,2013-04-24 17:00:00,
2013-04-24 12:05:00,48.7,31.4,31.01,NNW,348,3.1,5.8,51,0.00,,,0.00,WUHU216WMR968SP,2013-04-24 17:05:00,
2013-04-24 12:10:00,48.6,30.8,31.01,NW,317,2.7,7.6,50,0.00,,,0.00,WUHU216WMR968SP,2013-04-24 17:10:00,
2013-04-24 12:15:00,48.7,31.4,31.01,NNW,332,2.8,8.3,51,0.00,,,0.00,WUHU216WMR968SP,2013-04-24 17:15:00,
2013-04-24 12:20:00,48.4,31.1,31.01,NNW,346,3.3,10.1,51,0.00,,,0.00,WUHU216WMR968SP,2013-04-24 17:20:00,
2013-04-24 12:25:00,48.2,30.4,31.01,WNW,303,4.0,10.1,50,0.00,,,0.00,WUHU216WMR968SP,2013-04-24 17:25:00,
2013-04-24 12:30:00,48.7,30.9,31.01,NW,313,4.9,6.3,50,0.00,,,0.00,WUHU216WMR968SP,2013-04-24 17:30:00,
2013-04-24 12:35:00,48.4,31.1,31.01,WNW,299,4.0,6.3,51,0.00,,,0.00,WUHU216WMR968SP,2013-04-24 17:35:00,
2013-04-24 12:40:00,48.0,32.0,31.01,NW,322,3.1,6.3,53,0.00,,,0.00,WUHU216WMR968SP,2013-04-24 17:40:00,
2013-04-24 12:45:00,47.5,32.0,31.01,NW,322,3.9,6.7,53,0.00,,,0.00,WUHU216WMR968SP,2013-04-24 17:45:00,
2013-04-24 12:50:00,47.7,32.0,31.01,West,281,3.6,6.7,54,0.00,,,0.00,WUHU216WMR968SP,2013-04-24 17:50:00,
2013-04-24 12:55:00,48.0,32.0,31.01,NW,313,3.2,6.7,55,0.00,,,0.00,WUHU216WMR968SP,2013-04-24 17:55:00,
2013-04-24 13:00:00,48.7,32.0,31.01,NW,311,4.5,8.1,55,0.00,,,0.00,WUHU216WMR968SP,2013-04-24 18:00:00,
2013-04-24 13:05:00,49.1,32.0,31.01,North,5,5.8,8.3,50,0.00,,,0.00,WUHU216WMR968SP,2013-04-24 18:05:00,
2013-04-24 13:10:00,49.8,32.0,31.01,NNW,341,6.3,9.2,50,0.00,,,0.00,WUHU216WMR968SP,2013-04-24 18:10:00,
2013-04-24 13:15:00,50.5,32.0,31.01,North,354,4.9,9.2,49,0.00,,,0.00,WUHU216WMR968SP,2013-04-24 18:15:00,
2013-04-24 13:20:00,50.2,30.7,31.01,North,353,4.5,8.7,47,0.00,,,0.00,WUHU216WMR968SP,2013-04-24 18:20:00,
2013-04-24 13:25:00,50.4,30.8,31.01,North,3,4.9,9.2,47,0.00,,,0.00,WUHU216WMR968SP,2013-04-24 18:25:00,
2013-04-24 13:30:00,49.8,32.0,31.01,NNW,328,4.6,9.2,48,0.00,,,0.00,WUHU216WMR968SP,2013-04-24 18:30:00,
2013-04-24 13:35:00,49.5,32.0,31.01,North,10,6.3,8.3,48,0.00,,,0.00,WUHU216WMR968SP,2013-04-24 18:35:00,
2013-04-24 13:40:00,50.0,30.5,31.01,NW,323,4.9,8.7,47,0.00,,,0.00,WUHU216WMR968SP,2013-04-24 18:40:00,
2013-04-24 13:45:00,50.7,30.6,31.01,NNW,334,6.7,11.0,46,0.00,,,0.00,WUHU216WMR968SP,2013-04-24 18:45:00,
2013-04-24 13:50:00,50.4,29.7,31.01,NW,321,4.1,11.0,45,0.00,,,0.00,WUHU216WMR968SP,2013-04-24 18:50:00,
2013-04-24 13:55:00,49.8,28.6,31.01,NNW,341,5.4,8.3,44,0.00,,,0.00,WUHU216WMR968SP,2013-04-24 18:55:00,
2013-04-24 14:00:00,50.2,30.1,31.01,NNW,341,4.0,8.3,46,0.00,,,0.00,WUHU216WMR968SP,2013-04-24 19:00:00,
2013-04-24 14:05:00,50.4,29.7,31.01,NNW,340,4.1,8.7,45,0.00,,,0.00,WUHU216WMR968SP,2013-04-24 19:05:00,
2013-04-24 14:10:00,50.4,30.3,31.01,NW,314,2.7,8.7,46,0.00,,,0.00,WUHU216WMR968SP,2013-04-24 19:10:00,
2013-04-24 14:15:00,50.9,29.6,31.01,NNW,337,5.8,8.3,44,0.00,,,0.00,WUHU216WMR968SP,2013-04-24 19:15:00,
2013-04-24 14:20:00,51.3,32.0,31.01,NNW,331,4.9,10.1,45,0.00,,,0.00,WUHU216WMR968SP,2013-04-24 19:20:00,
2013-04-24 14:25:00,52.0,30.1,31.01,NNW,344,5.4,10.1,43,0.00,,,0.00,WUHU216WMR968SP,2013-04-24 19:25:00,
2013-04-24 14:30:00,51.1,28.0,31.01,NW,315,3.7,8.1,41,0.00,,,0.00,WUHU216WMR968SP,2013-04-24 19:30:00,
2013-04-24 14:35:00,51.4,29.5,31.01,North,352,4.2,8.1,43,0.00,,,0.00,WUHU216WMR968SP,2013-04-24 19:35:00,
2013-04-24 14:40:00,51.4,28.9,31.01,SW,217,4.5,9.6,42,0.00,,,0.00,WUHU216WMR968SP,2013-04-24 19:40:00,
2013-04-24 14:45:00,51.8,29.3,31.01,NW,324,3.6,9.6,42,0.00,,,0.00,WUHU216WMR968SP,2013-04-24 19:45:00,
2013-04-24 14:50:00,51.8,28.1,31.01,WNW,303,2.5,5.8,40,0.00,,,0.00,WUHU216WMR968SP,2013-04-24 19:50:00,
2013-04-24 14:55:00,51.1,28.6,31.01,NW,318,4.0,7.2,42,0.00,,,0.00,WUHU216WMR968SP,2013-04-24 19:55:00,
2013-04-24 15:00:00,51.8,28.7,31.01,NNW,346,5.8,8.7,41,0.00,,,0.00,WUHU216WMR968SP,2013-04-24 20:00:00,
2013-04-24 15:05:00,51.8,29.3,31.01,NW,324,3.6,8.7,42,0.00,,,0.00,WUHU216WMR968SP,2013-04-24 20:05:00,
2013-04-24 15:10:00,52.5,28.7,31.01,North,358,4.8,8.1,40,0.00,,,0.00,WUHU216WMR968SP,2013-04-24 20:10:00,
2013-04-24 15:15:00,53.1,28.6,31.01,NNW,340,7.6,9.6,39,0.00,,,0.00,WUHU216WMR968SP,2013-04-24 20:15:00,
2013-04-24 15:20:00,53.6,27.7,31.01,NNW,344,4.5,9.6,37,0.00,,,0.00,WUHU216WMR968SP,2013-04-24 20:20:00,
2013-04-24 15:25:00,53.6,27.7,31.01,WNW,285,2.6,11.0,37,0.00,,,0.00,WUHU216WMR968SP,2013-04-24 20:25:00,
2013-04-24 15:30:00,53.8,27.2,31.01,NNW,338,6.3,11.0,36,0.00,,,0.00,WUHU216WMR968SP,2013-04-24 20:30:00,
2013-04-24 15:35:00,54.1,28.8,31.01,WSW,256,4.0,10.1,38,0.00,,,0.00,WUHU216WMR968SP,2013-04-24 20:35:00,
2013-04-24 15:40:00,53.4,27.6,31.01,NNW,342,5.8,10.1,37,0.00,,,0.00,WUHU216WMR968SP,2013-04-24 20:40:00,
2013-04-24 15:45:00,53.6,27.7,31.01,NW,314,5.3,8.3,37,0.00,,,0.00,WUHU216WMR968SP,2013-04-24 20:45:00,
2013-04-24 15:49:00,54.3,29.7,31.01,WNW,290,5.4,8.3,39,0.00,,,0.00,WUHU216WMR968SP,2013-04-24 20:49:00,
2013-04-24 15:54:00,55.4,29.3,31.01,North,9,4.0,8.7,37,0.00,,,0.00,WUHU216WMR968SP,2013-04-24 20:54:00,
2013-04-24 15:59:00,55.2,29.2,31.01,North,353,4.9,8.7,37,0.00,,,0.00,WUHU216WMR968SP,2013-04-24 20:59:00,
2013-04-24 16:04:00,56.1,29.3,31.01,NW,315,3.1,7.6,36,0.00,,,0.00,WUHU216WMR968SP,2013-04-24 21:04:00,
2013-04-24 16:09:00,54.7,28.0,31.01,NNW,342,4.5,8.3,36,0.00,,,0.00,WUHU216WMR968SP,2013-04-24 21:09:00,
2013-04-24 16:14:00,54.5,28.5,31.01,NNW,332,4.0,8.3,37,0.00,,,0.00,WUHU216WMR968SP,2013-04-24 21:14:00,
2013-04-24 16:19:00,55.2,29.2,31.01,NW,316,3.1,6.3,37,0.00,,,0.00,WUHU216WMR968SP,2013-04-24 21:19:00,
2013-04-24 16:24:00,55.2,28.5,31.01,WNW,301,3.8,6.7,36,0.00,,,0.00,WUHU216WMR968SP,2013-04-24 21:24:00,
2013-04-24 16:29:00,55.6,28.1,31.01,NNW,329,4.2,6.7,35,0.00,,,0.00,WUHU216WMR968SP,2013-04-24 21:29:00,
2013-04-24 16:34:00,55.8,29.0,31.01,North,3,7.3,11.0,36,0.00,,,0.00,WUHU216WMR968SP,2013-04-24 21:34:00,
2013-04-24 16:39:00,54.1,27.5,31.01,NW,316,6.3,11.0,36,0.00,,,0.00,WUHU216WMR968SP,2013-04-24 21:39:00,
2013-04-24 16:44:00,54.9,29.6,31.01,NW,307,3.9,8.3,38,0.00,,,0.00,WUHU216WMR968SP,2013-04-24 21:44:00,
2013-04-24 16:49:00,56.3,29.5,31.01,NNW,344,5.1,10.1,36,0.00,,,0.00,WUHU216WMR968SP,2013-04-24 21:49:00,
2013-04-24 16:54:00,55.2,27.8,31.01,NNW,333,5.4,10.1,35,0.00,,,0.00,WUHU216WMR968SP,2013-04-24 21:54:00,
2013-04-24 16:59:00,55.2,28.5,31.01,NNW,342,4.0,7.6,36,0.00,,,0.00,WUHU216WMR968SP,2013-04-24 21:59:00,
2013-04-24 17:04:00,55.2,28.5,31.01,NNW,330,4.0,6.3,36,0.00,,,0.00,WUHU216WMR968SP,2013-04-24 22:04:00,
2013-04-24 17:09:00,56.3,29.5,31.01,NNE,20,4.5,6.3,36,0.00,,,0.00,WUHU216WMR968SP,2013-04-24 22:09:00,
2013-04-24 17:14:00,56.3,28.8,31.01,NNE,28,5.4,6.7,35,0.00,,,0.00,WUHU216WMR968SP,2013-04-24 22:14:00,
2013-04-24 17:19:00,57.0,30.1,31.01,NNW,344,3.0,6.7,36,0.00,,,0.00,WUHU216WMR968SP,2013-04-24 22:19:00,
2013-04-24 17:24:00,57.2,29.6,31.01,NNW,348,4.9,6.3,35,0.00,,,0.00,WUHU216WMR968SP,2013-04-24 22:24:00,
2013-04-24 17:29:00,57.0,29.4,31.01,North,0,5.8,8.7,35,0.00,,,0.00,WUHU216WMR968SP,2013-04-24 22:29:00,
2013-04-24 17:34:00,55.6,28.1,31.01,NNE,24,4.0,8.7,35,0.00,,,0.00,WUHU216WMR968SP,2013-04-24 22:34:00,
2013-04-24 17:39:00,54.5,27.9,31.01,North,358,2.9,8.3,36,0.00,,,0.00,WUHU216WMR968SP,2013-04-24 22:39:00,
2013-04-24 17:44:00,53.6,27.7,31.01,North,6,3.5,5.8,37,0.00,,,0.00,WUHU216WMR968SP,2013-04-24 22:44:00,
2013-04-24 17:49:00,52.9,27.8,31.01,NE,45,2.7,5.8,38,0.00,,,0.00,WUHU216WMR968SP,2013-04-24 22:49:00,
2013-04-24 17:54:00,52.2,27.8,31.01,ESE,106,2.7,5.8,39,0.00,,,0.00,WUHU216WMR968SP,2013-04-24 22:54:00,
2013-04-24 17:59:00,52.0,28.2,31.01,North,356,3.4,6.3,40,0.00,,,0.00,WUHU216WMR968SP,2013-04-24 22:59:00,
2013-04-24 18:04:00,51.6,27.9,31.01,NNE,15,2.2,6.3,40,0.00,,,0.00,WUHU216WMR968SP,2013-04-24 23:04:00,
2013-04-24 18:09:00,51.6,29.1,31.01,NNE,19,2.7,4.0,42,0.00,,,0.00,WUHU216WMR968SP,2013-04-24 23:09:00,
2013-04-24 18:14:00,52.2,29.0,31.01,North,7,4.5,6.3,41,0.00,,,0.00,WUHU216WMR968SP,2013-04-24 23:14:00,
2013-04-24 18:19:00,51.8,28.1,31.01,NNE,20,2.7,6.3,40,0.00,,,0.00,WUHU216WMR968SP,2013-04-24 23:19:00,
2013-04-24 18:24:00,51.4,28.9,31.01,NNW,345,2.4,4.5,42,0.00,,,0.00,WUHU216WMR968SP,2013-04-24 23:24:00,
2013-04-24 18:29:00,51.4,29.5,31.01,NNW,338,0.0,4.0,43,0.00,,,0.00,WUHU216WMR968SP,2013-04-24 23:29:00,
2013-04-24 18:34:00,53.2,32.0,31.01,NNW,344,3.0,4.9,43,0.00,,,0.00,WUHU216WMR968SP,2013-04-24 23:34:00,
2013-04-24 18:39:00,54.1,29.5,31.01,NW,325,4.5,5.8,39,0.00,,,0.00,WUHU216WMR968SP,2013-04-24 23:39:00,
2013-04-24 18:44:00,53.1,27.9,31.01,North,355,3.1,6.3,38,0.00,,,0.00,WUHU216WMR968SP,2013-04-24 23:44:00,
2013-04-24 18:49:00,52.5,28.1,31.01,NNE,26,0.0,6.3,39,0.00,,,0.00,WUHU216WMR968SP,2013-04-24 23:49:00,
2013-04-24 18:54:00,51.8,27.4,31.01,North,5,2.2,3.6,39,0.00,,,0.00,WUHU216WMR968SP,2013-04-24 23:54:00,
2013-04-24 18:59:00,51.4,27.7,31.01,NNW,331,2.2,4.0,40,0.00,,,0.00,WUHU216WMR968SP,2013-04-24 23:59:00,
2013-04-24 19:04:00,50.9,27.9,31.01,North,8,3.6,4.9,41,0.00,,,0.00,WUHU216WMR968SP,2013-04-25 00:04:00,
2013-04-24 19:09:00,50.4,28.6,31.01,North,7,2.2,5.8,43,0.00,,,0.00,WUHU216WMR968SP,2013-04-25 00:09:00,
2013-04-24 19:14:00,50.0,29.4,31.01,NNW,329,0.0,5.8,45,0.00,,,0.00,WUHU216WMR968SP,2013-04-25 00:14:00,
2013-04-24 19:19:00,49.6,29.0,31.01,North,0,2.2,3.6,45,0.00,,,0.00,WUHU216WMR968SP,2013-04-25 00:19:00,
2013-04-24 19:24:00,49.1,28.6,31.01,NNW,345,0.0,2.7,45,0.00,,,0.00,WUHU216WMR968SP,2013-04-25 00:24:00,
2013-04-24 19:29:00,48.7,28.7,31.01,NNW,344,0.0,2.2,46,0.00,,,0.00,WUHU216WMR968SP,2013-04-25 00:29:00,
2013-04-24 19:34:00,48.2,28.3,31.01,North,0,0.0,0.0,46,0.00,,,0.00,WUHU216WMR968SP,2013-04-25 00:34:00,
2013-04-24 19:39:00,47.7,28.9,31.01,East,97,0.0,0.0,48,0.00,,,0.00,WUHU216WMR968SP,2013-04-25 00:39:00,
2013-04-24 19:44:00,47.3,30.1,31.01,East,91,0.0,0.0,51,0.00,,,0.00,WUHU216WMR968SP,2013-04-25 00:44:00,
2013-04-24 19:49:00,46.9,30.2,31.01,NE,45,0.0,2.7,52,0.00,,,0.00,WUHU216WMR968SP,2013-04-25 00:49:00,
2013-04-24 19:54:00,46.2,32.0,31.01,North,10,0.0,2.7,56,0.00,,,0.00,WUHU216WMR968SP,2013-04-25 00:54:00,
2013-04-24 19:59:00,45.5,32.0,31.01,North,10,0.0,2.7,56,0.00,,,0.00,WUHU216WMR968SP,2013-04-25 00:59:00,
2013-04-24 20:04:00,44.8,30.1,31.01,North,10,0.0,0.0,56,0.00,,,0.00,WUHU216WMR968SP,2013-04-25 01:04:00,
2013-04-24 20:09:00,44.4,30.2,31.01,North,10,0.0,0.0,57,0.00,,,0.00,WUHU216WMR968SP,2013-04-25 01:09:00,
2013-04-24 20:14:00,44.2,32.0,31.01,North,10,0.0,0.0,61,0.00,,,0.00,WUHU216WMR968SP,2013-04-25 01:14:00,
2013-04-24 20:19:00,44.1,33.8,31.01,North,10,0.0,0.0,64,0.00,,,0.00,WUHU216WMR968SP,2013-04-25 01:19:00,
2013-04-24 20:24:00,43.5,32.0,31.01,North,10,0.0,0.0,64,0.00,,,0.00,WUHU216WMR968SP,2013-04-25 01:24:00,
2013-04-24 20:29:00,43.3,32.0,31.01,North,10,0.0,0.0,66,0.00,,,0.00,WUHU216WMR968SP,2013-04-25 01:29:00,
2013-04-24 20:34:00,43.0,32.0,31.01,North,10,0.0,0.0,66,0.00,,,0.00,WUHU216WMR968SP,2013-04-25 01:34:00,
2013-04-24 20:39:00,42.8,32.0,31.01,North,10,0.0,0.0,66,0.00,,,0.00,WUHU216WMR968SP,2013-04-25 01:39:00,
2013-04-24 20:44:00,42.8,32.0,31.01,North,10,0.0,0.0,67,0.00,,,0.00,WUHU216WMR968SP,2013-04-25 01:44:00,
2013-04-24 20:49:00,42.6,33.8,31.01,North,10,0.0,0.0,69,0.00,,,0.00,WUHU216WMR968SP,2013-04-25 01:49:00,
2013-04-24 20:54:00,42.6,33.8,31.01,North,10,0.0,0.0,72,0.00,,,0.00,WUHU216WMR968SP,2013-04-25 01:54:00,
2013-04-24 20:59:00,42.3,35.6,31.01,North,10,0.0,0.0,73,0.00,,,0.00,WUHU216WMR968SP,2013-04-25 01:59:00,
2013-04-24 21:04:00,41.9,35.6,31.01,North,10,0.0,0.0,73,0.00,,,0.00,WUHU216WMR968SP,2013-04-25 02:04:00,
2013-04-24 21:09:00,41.7,33.8,31.01,North,10,0.0,0.0,73,0.00,,,0.00,WUHU216WMR968SP,2013-04-25 02:09:00,
2013-04-24 21:14:00,41.5,33.8,31.01,North,10,0.0,0.0,74,0.00,,,0.00,WUHU216WMR968SP,2013-04-25 02:14:00,
2013-04-24 21:19:00,41.4,33.8,31.01,North,10,0.0,0.0,74,0.00,,,0.00,WUHU216WMR968SP,2013-04-25 02:19:00,
2013-04-24 21:24:00,41.2,33.8,31.01,North,10,0.0,0.0,74,0.00,,,0.00,WUHU216WMR968SP,2013-04-25 02:24:00,
2013-04-24 21:29:00,41.2,33.8,31.01,North,10,0.0,0.0,74,0.00,,,0.00,WUHU216WMR968SP,2013-04-25 02:29:00,
2013-04-24 21:34:00,41.0,33.8,31.01,North,10,0.0,0.0,74,0.00,,,0.00,WUHU216WMR968SP,2013-04-25 02:34:00,
2013-04-24 21:39:00,41.2,33.8,31.01,North,10,0.0,0.0,75,0.00,,,0.00,WUHU216WMR968SP,2013-04-25 02:39:00,
2013-04-24 21:44:00,41.0,33.8,31.01,North,10,0.0,0.0,76,0.00,,,0.00,WUHU216WMR968SP,2013-04-25 02:44:00,
2013-04-24 21:49:00,40.6,33.8,31.01,North,10,0.0,0.0,76,0.00,,,0.00,WUHU216WMR968SP,2013-04-25 02:49:00,
2013-04-24 21:54:00,40.5,33.8,31.01,North,10,0.0,0.0,77,0.00,,,0.00,WUHU216WMR968SP,2013-04-25 02:54:00,
2013-04-24 21:59:00,40.3,33.8,31.01,North,10,0.0,0.0,77,0.00,,,0.00,WUHU216WMR968SP,2013-04-25 02:59:00,
2013-04-24 22:04:00,40.6,33.8,31.01,North,10,0.0,0.0,78,0.00,,,0.00,WUHU216WMR968SP,2013-04-25 03:04:00,
2013-04-24 22:09:00,40.6,35.6,31.01,North,10,0.0,0.0,79,0.00,,,0.00,WUHU216WMR968SP,2013-04-25 03:09:00,
2013-04-24 22:14:00,40.5,35.6,31.01,North,10,0.0,0.0,80,0.00,,,0.00,WUHU216WMR968SP,2013-04-25 03:14:00,
2013-04-24 22:19:00,40.1,35.6,31.01,North,10,0.0,0.0,80,0.00,,,0.00,WUHU216WMR968SP,2013-04-25 03:19:00,
2013-04-24 22:24:00,40.1,35.6,31.01,North,10,0.0,0.0,80,0.00,,,0.00,WUHU216WMR968SP,2013-04-25 03:24:00,
2013-04-24 22:29:00,40.1,35.6,31.01,North,10,0.0,0.0,80,0.00,,,0.00,WUHU216WMR968SP,2013-04-25 03:29:00,
2013-04-24 22:34:00,39.9,33.8,31.01,North,10,0.0,0.0,80,0.00,,,0.00,WUHU216WMR968SP,2013-04-25 03:34:00,
2013-04-24 22:39:00,39.7,33.8,31.01,North,10,0.0,0.0,81,0.00,,,0.00,WUHU216WMR968SP,2013-04-25 03:39:00,
2013-04-24 22:44:00,39.6,33.8,31.01,North,10,0.0,0.0,80,0.00,,,0.00,WUHU216WMR968SP,2013-04-25 03:44:00,
2013-04-24 22:49:00,39.4,33.8,31.01,North,10,0.0,0.0,80,0.00,,,0.00,WUHU216WMR968SP,2013-04-25 03:49:00,
2013-04-24 22:54:00,39.2,33.8,31.01,North,10,0.0,0.0,81,0.00,,,0.00,WUHU216WMR968SP,2013-04-25 03:54:00,
2013-04-24 22:59:00,39.2,33.8,31.01,North,10,0.0,0.0,81,0.00,,,0.00,WUHU216WMR968SP,2013-04-25 03:59:00,
2013-04-24 23:01:00,39.2,33.8,31.01,North,10,0.0,0.0,81,0.00,,,0.00,WUHU216WMR968SP,2013-04-25 04:01:00,
2013-04-24 23:06:00,38.8,33.8,31.01,North,10,0.0,0.0,81,0.00,,,0.00,WUHU216WMR968SP,2013-04-25 04:06:00,
2013-04-24 23:11:00,38.8,33.8,31.01,North,10,0.0,0.0,81,0.00,,,0.00,WUHU216WMR968SP,2013-04-25 04:11:00,
2013-04-24 23:16:00,38.8,33.8,31.01,North,10,0.0,0.0,81,0.00,,,0.00,WUHU216WMR968SP,2013-04-25 04:16:00,
2013-04-24 23:21:00,38.7,33.8,31.01,North,10,0.0,0.0,82,0.00,,,0.00,WUHU216WMR968SP,2013-04-25 04:21:00,
2013-04-24 23:26:00,38.5,33.8,31.01,North,11,0.0,0.0,82,0.00,,,0.00,WUHU216WMR968SP,2013-04-25 04:26:00,
2013-04-24 23:31:00,38.3,33.8,31.01,North,11,0.0,0.0,82,0.00,,,0.00,WUHU216WMR968SP,2013-04-25 04:31:00,
2013-04-24 23:36:00,38.3,33.8,31.01,North,11,0.0,0.0,82,0.00,,,0.00,WUHU216WMR968SP,2013-04-25 04:36:00,
2013-04-24 23:41:00,38.3,33.8,31.01,North,11,0.0,0.0,82,0.00,,,0.00,WUHU216WMR968SP,2013-04-25 04:41:00,
2013-04-24 23:46:00,38.1,32.0,31.01,North,11,0.0,0.0,83,0.00,,,0.00,WUHU216WMR968SP,2013-04-25 04:46:00,
2013-04-24 23:51:00,38.1,32.0,31.01,North,11,0.0,0.0,83,0.00,,,0.00,WUHU216WMR968SP,2013-04-25 04:51:00,
2013-04-24 23:56:00,37.9,32.0,31.01,North,11,0.0,0.0,83,0.00,,,0.00,WUHU216WMR968SP,2013-04-25 04:56:00,